• Join FlightAware (Why Join?)
  • Login
  • US Flag 
02:34AM EST


 

Airport Tracker/Info


-or-


 

Live Flight TrackerFlight Track Log ✈ GJS3618 ✈ 03-Sep-2013 ✈ KOMA - KDEN

Flight Track Log - Related Links

Times and Time Zones

All times are in EDT time to prevent confusion due to time zone crossing. See the GJS3618 flight status page for this flight to view local times or setup timezone preferences in your user account.

Time Position Orientation Groundspeed Altitude Reporting Facility
EDT Latitude Longitude Course Direction KTS MPH feet Rate Location/Type
07:27AM 41.3228 -95.8997 328° Northwest 170 196 1,600  Level Minneapolis Center
07:28AM 41.3517 -95.9242 328° Northwest 192 221 2,700 1,860 Climbing Minneapolis Center
07:29AM 41.3650 -96.0003 283° West 236 272 4,800 2,040 Climbing Minneapolis Center
07:30AM 41.3672 -96.0672 273° West 234 269 6,600 2,520 Climbing Minneapolis Center
07:31AM 41.3694 -96.1822 272° West 271 312 9,600 2,280 Climbing Minneapolis Center
07:32AM 41.3700 -96.2906 270° West 286 329 11,300 1,740 Climbing Minneapolis Center
07:33AM 41.3731 -96.4142 272° West 321 369 13,200 1,980 Climbing Minneapolis Center
07:34AM 41.3736 -96.5411 270° West 337 388 15,300 1,800 Climbing Minneapolis Center
07:35AM 41.3739 -96.6703 270° West 346 398 16,900 1,440 Climbing Minneapolis Center
07:36AM 41.3758 -96.8058 271° West 360 414 18,300 1,380 Climbing Minneapolis Center
07:37AM 41.3764 -96.9625 270° West 379 436 19,800 1,380 Climbing Minneapolis Center
07:38AM 41.3767 -97.0928 270° West 389 448 21,200 1,200 Climbing Minneapolis Center
07:39AM 41.3778 -97.2394 271° West 394 453 22,300 1,020 Climbing Minneapolis Center
07:40AM 41.3781 -97.3900 270° West 403 464 23,300 960 Climbing Minneapolis Center
07:41AM 41.3767 -97.5456 269° West 415 478 24,300 1,080 Climbing Minneapolis Center
07:42AM 41.3447 -97.7308 257° West 425 489 25,500 1,020 Climbing Minneapolis Center
07:43AM 41.3186 -97.8700 256° West 429 494 26,400 900 Climbing Minneapolis Center
07:44AM 41.2908 -98.0264 257° West 432 497 27,400 960 Climbing Minneapolis Center
07:45AM 41.2633 -98.1814 257° West 432 497 28,400 1,020 Climbing Minneapolis Center
07:46AM 41.2356 -98.3361 257° West 432 497 29,500 1,080 Climbing Minneapolis Center
07:47AM 41.2047 -98.5053 256° West 432 497 30,600 1,020 Climbing Minneapolis Center
07:48AM 41.1767 -98.6589 256° West 430 495 31,600 960 Climbing Minneapolis Center
07:49AM 41.1483 -98.8153 257° West 432 497 32,600 960 Climbing Minneapolis Center
07:50AM 41.1189 -98.9706 256° West 434 499 33,600 840 Climbing Minneapolis Center
07:51AM 41.0939 -99.1233 258° West 428 493 34,400 720 Climbing Minneapolis Center
07:52AM 41.0678 -99.2792 258° West 425 489 35,100 720 Climbing Minneapolis Center
07:53AM 41.0419 -99.4350 258° West 430 495 35,900 720 Climbing Minneapolis Center
07:54AM 41.0156 -99.5906 257° West 432 497 36,600 660 Climbing Minneapolis Center
07:55AM 40.9833 -99.7786 257° West 436 502 37,300 540 Climbing Minneapolis Center
07:56AM 40.9558 -99.9353 257° West 437 503 37,800 300 Climbing Minneapolis Center
07:57AM 40.9278 -100.0919 257° West 438 504 38,000 60 Climbing Minneapolis Center
07:58AM 40.9011 -100.2503 257° West 440 506 38,000  Level Minneapolis Center
07:59AM 40.8736 -100.4061 257° West 438 504 38,000  Level Minneapolis Center
08:00AM 40.8464 -100.5581 257° West 432 497 38,000  Level Minneapolis Center
08:02AM 40.8058 -100.7694 256° West 432 497 38,000  Level Denver Center
08:03AM 40.7806 -100.9067 256° West 441 507 38,000  Level Denver Center
08:04AM 40.7489 -101.0778 256° West 435 501 38,000  Level Denver Center
08:05AM 40.7217 -101.2275 257° West 438 504 38,000  Level Denver Center
08:06AM 40.6931 -101.3778 256° West 442 509 38,000  Level Denver Center
08:07AM 40.6611 -101.5528 257° West 441 507 38,000  Level Denver Center
08:08AM 40.6331 -101.7014 256° West 439 505 38,000  Level Denver Center
08:09AM 40.6039 -101.8492 255° West 435 501 38,000 -60 Level Denver Center
08:10AM 40.5697 -102.0203 255° West 434 499 37,900 -720 Descending Denver Center
08:11AM 40.5403 -102.1667 255° West 435 501 36,600 -1,440 Descending Denver Center
08:12AM 40.5122 -102.3161 256° West 439 505 35,100 -1,440 Descending Denver Center
08:13AM 40.4819 -102.4647 255° West 441 507 33,700 -1,680 Descending Denver Center
08:14AM 40.4469 -102.6392 255° West 445 512 31,800 -2,040 Descending Denver Center
08:15AM 40.4192 -102.7781 255° West 443 510 29,600 -2,340 Descending Denver Center
08:16AM 40.3878 -102.9325 255° West 439 505 27,100 -2,520 Descending Denver Center
08:17AM 40.3578 -103.0803 255° West 423 487 24,600 -2,460 Descending Denver Center
08:18AM 40.3222 -103.2544 255° West 412 474 22,200 -1,680 Descending Denver Center
08:19AM 40.2928 -103.3914 254° West 392 451 21,200 -840 Descending Denver Center
08:20AM 40.2650 -103.5256 255° West 383 441 20,600 -900 Descending Denver Center
08:21AM 40.2392 -103.6503 255° West 358 412 19,500 -1,140 Descending Denver Center
08:22AM 40.2147 -103.7728 255° West 360 414 18,400 -1,020 Descending Denver Center
08:23AM 40.2036 -103.8911 263° West 328 377 17,500 -1,440 Descending Denver Center
08:24AM 40.2158 -104.0136 277° West 317 365 15,500 -1,740 Descending Denver Center
08:25AM 40.2264 -104.1264 277° West 315 362 14,000 -1,380 Descending Denver Center
08:26AM 40.2353 -104.2350 276° West 302 348 12,800 -1,140 Descending Denver Center
08:27AM 40.2458 -104.3378 278° West 289 333 11,800 -840 Descending Denver Center
08:28AM 40.2536 -104.4294 276° West 261 300 11,200 -1,080 Descending Denver Center
08:29AM 40.2458 -104.5272 264° West 267 307 9,700 -1,140 Descending Denver Center
08:30AM 40.1839 -104.5747 210° Southwest 262 302 9,000 -360 Descending Denver Center
08:31AM 40.1167 -104.6167 206° Southwest 261 300 9,000 -60 Level Denver TRACON
08:32AM 40.0667 -104.6667 217° Southwest 242 278 8,900 -840 Descending Denver TRACON
08:33AM 40.0008 -104.6861 193° South 226 260 7,400 -1,260 Descending Denver Center
08:34AM 39.9436 -104.6861 180° South 184 212 6,300 -900 Descending Denver Center
08:35AM 39.8986 -104.6867 181° South 163 188 5,500 -660 Descending Denver Center